[[{"header":{"parameterUnit":"m.s-1","parameterCategory":1,"la1":30.2991,"la2":30.254,"lo1":-89.0895,"lo2":-89.0444,"dy":0.0017,"dx":0.0017,"nx":28,"ny":28,"refTime":"2025-07-12T21:00:00:Z","depth":0,"parameterNumber":2,"parameterNumberName":"U-component_of_WINDS"},"data":[0,0,0,0,0,0,0,0,0,0,0,0,0,0,0,0,0,0,0,0,0,0,0,0,0,0,0,0,0,0,0,0,0,0,0,0,0,0,0,0,0,0,0,0,0,0,0,0,0,0,0,0,0,0,0,0,0,0,2.3525,2.3527,0,2.3716,2.3719,2.3721,2.3761,2.3759,2.3758,2.3757,2.3958,2.3964,2.3971,0,0,0,0,0,0,0,0,0,0,0,0,0,2.3199,2.3205,2.3525,2.3528,2.353,2.3716,2.3719,2.3721,2.3761,2.3759,2.3758,2.3756,2.3955,2.3963,2.3971,0,0,0,0,0,0,0,0,0,0,0,0,0,2.336,2.3206,2.3525,2.3572,2.3578,2.3716,2.3719,2.3722,2.3762,2.3759,2.3757,2.3755,2.3953,2.3962,2.3972,2.4077,0,0,2.4003,2.4007,0,0,0,0,0,0,0,0,2.3351,2.3372,2.3563,2.3569,2.3576,2.3712,2.3677,2.3841,2.3762,2.3692,2.3757,2.3754,2.3878,2.3894,2.3935,2.4087,2.4096,2.4004,2.401,2.4014,2.4017,0,0,0,0,0,0,0,2.334,2.3364,2.3601,2.3566,2.3574,2.3585,2.3606,2.3709,2.3795,2.3698,2.3701,2.3723,2.3881,2.3925,2.394,2.4098,2.4004,2.4013,2.4019,2.4023,2.4345,2.4348,0,0,0,0,0,0,2.332,2.3355,2.3595,2.3607,2.3456,2.3593,2.3616,2.3671,2.3794,2.3811,2.3725,2.3724,2.3909,2.3928,2.3947,2.4077,2.4014,2.4024,2.4029,2.4343,2.4346,2.4349,0,0,0,0,0,0,2.3313,2.3341,2.3587,2.3482,2.3514,2.3601,2.3662,2.3676,2.372,2.3814,2.383,2.3753,2.3908,2.3933,2.4044,2.4085,2.4028,2.4037,2.434,2.4344,2.4347,2.4339,0,0,0,0,0,0,2.3303,2.3338,2.3378,2.3482,2.3519,2.368,2.3665,2.3681,2.3736,2.3737,2.3845,2.3861,2.3908,2.4029,2.4054,2.4098,2.4045,2.4337,2.4342,2.4346,2.4336,2.4342,2.4347,0,0,0,0,0,2.3291,2.3369,2.338,2.3408,2.3571,2.3682,2.3703,2.3755,2.3739,2.3781,2.3841,2.3858,2.4076,2.404,2.4069,2.4116,2.4334,2.434,2.4346,2.4333,2.434,2.4347,0,0,0,0,0,0,2.3269,2.3384,2.3397,2.351,2.3586,2.3688,2.3742,2.3761,2.3844,2.3842,2.3904,2.3928,2.4035,2.4087,2.4044,2.4224,2.4205,2.4217,2.4185,2.4193,2.4198,2.4183,2.4053,0,0,0,0,0,2.3277,2.3356,2.3453,2.3544,2.3581,2.3655,2.3705,2.3738,2.382,2.3852,2.3921,2.4001,2.4087,2.4143,2.4229,2.4344,2.4367,2.439,2.4396,2.44,2.4409,2.4473,2.4484,2.4368,2.4368,2.4368,0,0,2.3295,2.3367,2.3414,2.3541,2.3604,2.3685,2.3682,2.3768,2.383,2.3866,2.3974,2.4028,2.4121,2.4234,2.4287,2.4281,2.4446,2.4407,2.441,2.4417,2.448,2.4491,2.45,2.4372,2.4371,2.437,0,0,2.3369,2.3432,2.3514,2.3576,2.367,2.3718,2.3738,2.3838,2.3874,2.3983,2.4012,2.4087,2.4235,2.4299,2.4352,2.4449,2.4467,2.4476,2.4505,2.4566,2.4575,2.4583,2.4617,2.4629,2.4485,2.4485,2.4485,0,2.3379,2.3502,2.3554,2.3639,2.3694,2.3729,2.3813,2.3871,2.3989,2.4026,2.4017,2.4202,2.4268,2.4396,2.4419,2.4461,2.4486,2.4463,2.4569,2.4578,2.4587,2.462,2.4632,2.4485,2.4485,2.4485,2.4485,0,2.351,2.3595,2.365,2.376,2.3822,2.3906,2.3971,2.4028,2.4055,2.4105,2.4216,2.4295,2.4396,2.443,2.4459,2.4562,2.4555,2.4557,2.4539,2.4597,2.4629,2.4642,2.4485,2.4485,2.4485,2.4485,0,0,2.3575,2.3712,2.3731,2.3781,2.3887,2.3954,2.404,2.4137,2.4184,2.4264,2.4338,2.4462,2.4464,2.4523,2.4559,2.4613,2.4684,2.4609,2.4612,2.4619,2.4802,2.4799,2.4812,2.4697,2.47,2.4702,2.4794,0,2.3661,2.3813,2.3862,2.399,2.4068,2.4102,2.4177,2.4251,2.43,2.4375,2.443,2.4516,2.4512,2.4548,2.4603,2.4664,2.4722,2.4658,2.4766,2.477,2.474,2.4829,2.4827,2.491,2.4807,2.4809,2.481,0,2.3781,2.386,2.3995,2.409,2.4125,2.4191,2.4283,2.4354,2.4439,2.4471,2.4536,2.4568,2.466,2.4637,2.4765,2.472,2.4768,2.4804,2.4809,2.482,2.4792,2.4842,2.4938,2.4949,2.4831,2.4829,2.4828,0,2.3813,2.3954,2.4052,2.4095,2.4208,2.4254,2.4303,2.4385,2.444,2.4522,2.4558,2.465,2.47,2.4771,2.4827,2.4805,2.4949,2.4932,2.4978,2.4977,2.5006,2.5004,2.5109,2.5039,2.5039,2.5038,2.5038,0,2.3902,2.3983,2.4068,2.4128,2.422,2.4276,2.4366,2.4418,2.4491,2.4562,2.4599,2.4666,2.4736,2.4813,2.4857,2.4955,2.4979,2.5007,2.5018,2.5003,2.4999,2.5034,2.503,2.5042,2.5041,2.504,2.504,0,2.3953,2.4013,2.4123,2.4221,2.4247,2.431,2.4395,2.4455,2.4505,2.4596,2.462,2.47,2.4791,2.4854,2.4973,2.5003,2.5109,2.512,2.5079,2.5084,2.5127,2.5122,2.5258,2.5279,2.5195,2.5196,2.5197,0,2.4006,2.4068,2.4172,2.4222,2.4271,2.4352,2.4407,2.4466,2.4522,2.4622,2.4671,2.4765,2.4842,2.4988,2.5057,2.5147,2.516,2.5201,2.5174,2.5156,2.5159,2.5154,2.516,2.5205,2.5206,2.5206,2.5207,0,2.4092,2.4118,2.4196,2.4285,2.435,2.4423,2.4496,2.4535,2.4606,2.4668,2.4761,2.4822,2.4941,2.5034,2.5131,2.5184,2.5207,2.5215,2.523,2.5215,2.5189,2.5202,2.509,2.5211,2.5211,2.5211,2.521,2.521,2.4145,2.4201,2.4283,2.4369,2.443,2.4497,2.4558,2.4615,2.4693,2.4794,2.4824,2.4921,2.5004,2.5136,2.519,2.5267,2.5264,2.5286,2.5292,2.5296,2.5295,2.5177,2.5285,2.5285,2.5285,2.5285,2.5285,0,2.4232,2.4286,2.4364,2.4464,2.4532,2.4547,2.4628,2.4684,2.4768,2.4842,2.4918,2.5025,2.5114,2.519,2.5283,2.533,2.5343,2.5352,2.5349,2.5361,2.5294,2.527,2.534,2.534,2.534,2.534,2.534,2.534,2.4285,2.4381,2.4417,2.4544,2.4598,2.4692,2.4737,2.48,2.4859,2.4976,2.505,2.5098,2.5173,2.5272,2.5355,2.5375,2.5407,2.5414,2.5436,2.5372,2.5366,2.5359,2.5338,2.5421,2.5421,2.5497,2.5497,2.5498]},{"header":{"parameterUnit":"m.s-1","parameterCategory":1,"la1":30.2991,"la2":30.254,"lo1":-89.0895,"lo2":-89.0444,"dy":0.0017,"dx":0.0017,"nx":28,"ny":28,"refTime":"2025-07-12T21:00:00:Z","depth":0,"parameterNumber":3,"parameterNumberName":"V-component_of_WINDS"},"data":[0,0,0,0,0,0,0,0,0,0,0,0,0,0,0,0,0,0,0,0,0,0,0,0,0,0,0,0,0,0,0,0,0,0,0,0,0,0,0,0,0,0,0,0,0,0,0,0,0,0,0,0,0,0,0,0,0,0,3.3958,3.3958,0,3.3955,3.3955,3.3955,3.3966,3.3966,3.3966,3.3967,3.3961,3.396,3.396,0,0,0,0,0,0,0,0,0,0,0,0,0,3.3966,3.3966,3.3958,3.3958,3.3958,3.3955,3.3955,3.3955,3.3966,3.3966,3.3966,3.3967,3.3961,3.396,3.396,0,0,0,0,0,0,0,0,0,0,0,0,0,3.3963,3.3966,3.3958,3.3963,3.3963,3.3955,3.3955,3.3955,3.3966,3.3966,3.3967,3.3967,3.3961,3.396,3.396,3.3946,0,0,3.3957,3.3957,0,0,0,0,0,0,0,0,3.3963,3.3963,3.3962,3.3962,3.3963,3.3961,3.3956,3.3952,3.3965,3.3965,3.3967,3.3967,3.396,3.396,3.3958,3.3946,3.3945,3.3957,3.3957,3.3957,3.3957,0,0,0,0,0,0,0,3.3963,3.3963,3.3957,3.3962,3.3962,3.3963,3.3963,3.3955,3.396,3.3965,3.3965,3.3965,3.396,3.3959,3.3958,3.3945,3.3957,3.3957,3.3956,3.3956,3.3917,3.3917,0,0,0,0,0,0,3.3963,3.3963,3.3957,3.3957,3.3964,3.3963,3.3963,3.3961,3.396,3.396,3.3965,3.3966,3.396,3.3959,3.3958,3.3939,3.3957,3.3956,3.3956,3.3918,3.3917,3.3917,0,0,0,0,0,0,3.3964,3.3963,3.3957,3.396,3.3959,3.3962,3.396,3.3961,3.3959,3.396,3.396,3.3962,3.396,3.3959,3.3948,3.3939,3.3956,3.3955,3.3919,3.3918,3.3917,3.3904,0,0,0,0,0,0,3.3964,3.3963,3.3959,3.396,3.3959,3.3949,3.396,3.3961,3.3958,3.396,3.3958,3.3958,3.396,3.3949,3.3947,3.3939,3.3955,3.392,3.3918,3.3917,3.3905,3.3903,3.39,0,0,0,0,0,3.3964,3.3955,3.3959,3.3958,3.3955,3.3949,3.3948,3.3952,3.3958,3.3953,3.3953,3.3958,3.3941,3.3948,3.3946,3.3937,3.392,3.3919,3.3917,3.3906,3.3903,3.39,0,0,0,0,0,0,3.3953,3.3956,3.396,3.3951,3.395,3.395,3.3945,3.3949,3.3945,3.3946,3.395,3.3949,3.3937,3.3936,3.3944,3.3922,3.3931,3.3929,3.3923,3.392,3.3918,3.3918,3.3954,0,0,0,0,0,3.395,3.3946,3.3948,3.394,3.3939,3.3942,3.394,3.3942,3.394,3.394,3.3939,3.3935,3.3929,3.3925,3.3919,3.3905,3.3903,3.3897,3.3895,3.3893,3.3891,3.388,3.3877,3.3912,3.3912,3.3912,0,0,3.3943,3.3944,3.3941,3.3938,3.3937,3.3931,3.3941,3.3936,3.393,3.3938,3.3928,3.3927,3.3923,3.391,3.3904,3.3909,3.3881,3.3891,3.389,3.3889,3.3879,3.3875,3.3872,3.3911,3.3911,3.3911,0,0,3.3927,3.3928,3.3921,3.392,3.3918,3.3919,3.3917,3.3917,3.3917,3.3907,3.3912,3.3905,3.3894,3.389,3.3887,3.3866,3.387,3.3864,3.3852,3.3841,3.3839,3.3836,3.3826,3.3823,3.3863,3.3862,3.3862,0,3.3918,3.3911,3.3916,3.391,3.3907,3.3914,3.3905,3.3903,3.3899,3.3896,3.3901,3.3886,3.3884,3.3869,3.3864,3.3861,3.3857,3.3865,3.3839,3.3837,3.3834,3.3825,3.3821,3.3862,3.3862,3.3862,3.3862,0,3.39,3.3894,3.3888,3.3885,3.3881,3.3873,3.3875,3.387,3.3873,3.3872,3.386,3.3858,3.385,3.3847,3.3849,3.3831,3.3833,3.3839,3.3848,3.383,3.3821,3.3818,3.3861,3.3861,3.3861,3.3861,0,0,3.3878,3.3876,3.3874,3.3871,3.3868,3.3863,3.3854,3.3848,3.3842,3.3839,3.3829,3.3819,3.3823,3.3819,3.3821,3.3812,3.3792,3.3818,3.3818,3.3811,3.3768,3.3763,3.3759,3.3794,3.3794,3.3793,3.3767,0,3.3861,3.3848,3.385,3.3836,3.3829,3.3834,3.3826,3.3822,3.3821,3.3813,3.3812,3.3803,3.3811,3.3808,3.3799,3.3796,3.3783,3.3798,3.3783,3.3783,3.3783,3.3755,3.375,3.3726,3.3764,3.3764,3.3763,0,3.3841,3.3836,3.3821,3.3817,3.3814,3.3807,3.3799,3.3793,3.3787,3.3787,3.3781,3.3783,3.3771,3.3781,3.3762,3.3773,3.3766,3.3763,3.3762,3.376,3.3771,3.375,3.3719,3.3714,3.3758,3.3759,3.3759,0,3.3824,3.3814,3.3803,3.3801,3.3797,3.3791,3.3788,3.3783,3.3778,3.3771,3.3767,3.3758,3.3752,3.3744,3.3742,3.375,3.3723,3.3733,3.372,3.372,3.3714,3.3714,3.3679,3.3712,3.3712,3.3712,3.3712,0,3.3805,3.3795,3.3796,3.3789,3.3776,3.3779,3.3766,3.3763,3.3758,3.3749,3.3753,3.3743,3.3743,3.3732,3.3731,3.3714,3.3712,3.3709,3.3709,3.3708,3.3708,3.3704,3.3705,3.3711,3.3711,3.3711,3.3711,0,3.3785,3.3785,3.3773,3.3769,3.3768,3.3759,3.3754,3.3746,3.3745,3.3733,3.373,3.3727,3.3714,3.3712,3.3698,3.3696,3.3675,3.3677,3.3678,3.3677,3.3663,3.3664,3.3623,3.3617,3.3655,3.3655,3.3655,0,3.3772,3.3764,3.3759,3.3754,3.3751,3.3742,3.3737,3.3737,3.3731,3.3722,3.3714,3.3702,3.3693,3.3672,3.3667,3.3655,3.3655,3.3641,3.3653,3.3652,3.3652,3.3652,3.365,3.3639,3.3639,3.3638,3.3638,0,3.3748,3.3748,3.3741,3.3733,3.3726,3.3719,3.3713,3.3708,3.3707,3.3699,3.3686,3.3679,3.3663,3.365,3.3637,3.3632,3.3633,3.3634,3.363,3.3629,3.3629,3.3626,3.367,3.3635,3.3636,3.3636,3.3636,3.3636,3.3731,3.3723,3.3718,3.3708,3.3703,3.3696,3.3688,3.3685,3.3675,3.3663,3.3663,3.3649,3.3639,3.3622,3.3616,3.3603,3.3607,3.3601,3.36,3.3598,3.3596,3.3632,3.3601,3.3601,3.3601,3.3601,3.3601,0,3.3706,3.3702,3.3693,3.3684,3.3676,3.3679,3.3671,3.3663,3.3651,3.3643,3.3633,3.3617,3.3603,3.3596,3.3582,3.3572,3.3572,3.3568,3.3568,3.3566,3.3594,3.3598,3.3568,3.3568,3.3568,3.3568,3.3568,3.3568,3.3692,3.3678,3.3677,3.3659,3.3655,3.3642,3.3637,3.3629,3.3622,3.3604,3.3594,3.3589,3.358,3.3565,3.3551,3.3549,3.3543,3.3538,3.3536,3.3562,3.3565,3.3568,3.3572,3.3537,3.3537,3.3509,3.3509,3.3508]}]]